Joliet, IL

5:50 PM CDT on March 25, 2017 (GMT -0500)
Joliet Regional

Weather History for KJOT - December, 2013

Change the Weather History Date:

Friday, December 6, 2013

  Actual Average (KARR) Record (KARR)
Temperature  
Mean Temperature 16 °F -  
Max Temperature 20 °F 38 °F 59 °F (1998)
Min Temperature 12 °F 23 °F -10 °F (2007)
Degree Days  
Heating Degree Days 49    
Moisture  
Dew Point 8 °F    
Average Humidity 68    
Maximum Humidity 74    
Minimum Humidity 59    
Precipitation  
Precipitation 0.00 in - - ()
Sea Level Pressure  
Sea Level Pressure 30.38 in    
Wind  
Wind Speed 6 mph (NW)    
Max Wind Speed 9 mph    
Max Gust Speed -    
Visibility 10 miles    
Events      
Averages and records for this station are not official NWS values.
T = Trace of Precipitation, MM = Missing Value Source: NWS Daily Summary

Daily Weather History Graph

Daily Weather History Graph

Search for Another Location

Airport or City:

Trip Planner

Search our weather history database for the weather conditions in past years. The results will help you decide how hot, cold, wet, or windy it might be!

Date:

Astronomy

Dec. 06, 2013 Rise Set
Actual Time 7:04 AM CST 4:22 PM CST
Civil Twilight 6:33 AM CST 4:53 PM CST
Nautical Twilight 5:59 AM CST 5:28 PM CST
Astronomical Twilight 5:25 AM CST 6:02 PM CST
Moon 10:08 AM CST (12/6) 8:56 PM CST (12/6)
Length of Visible Light 10h 20m
Length of Day
9h 17m
Waxing Crescent, 19% of the Moon is Illuminated
Dec 6
Waxing Crescent
Dec 9
First Quarter
Dec 17
Full
Dec 25
Last Quarter
Jan 1
New

Hourly Weather History & Observations

Time (CST) Temp. Windchill Dew Point Humidity Pressure Visibility Wind Dir Wind Speed Gust Speed Precip Events Conditions
12:15 AM 20.3 °F 12.5 °F 10.9 °F 67% 30.25 in 10.0 mi NNW 5.8 mph - N/A   Clear
12:35 AM 20.3 °F 11.5 °F 10.9 °F 67% 30.25 in 10.0 mi NW 6.9 mph - N/A   Clear
12:55 AM 20.3 °F 13.8 °F 11.1 °F 68% 30.25 in 10.0 mi NW 4.6 mph - N/A   Scattered Clouds
1:15 AM 20.3 °F 12.5 °F 11.3 °F 68% 30.26 in 10.0 mi NW 5.8 mph - N/A   Mostly Cloudy
1:35 AM 20.3 °F 11.5 °F 11.3 °F 68% 30.26 in 10.0 mi NW 6.9 mph - N/A   Overcast
1:55 AM 20.3 °F 9.8 °F 10.9 °F 67% 30.28 in 10.0 mi NW 9.2 mph - N/A   Overcast
2:15 AM 20.1 °F 11.3 °F 10.9 °F 68% 30.29 in 10.0 mi NW 6.9 mph - N/A   Overcast
2:35 AM 20.1 °F 12.3 °F 11.1 °F 68% 30.29 in 10.0 mi WNW 5.8 mph - N/A   Overcast
2:55 AM 19.9 °F 11.1 °F 10.9 °F 68% 30.31 in 10.0 mi WNW 6.9 mph - N/A   Overcast
3:15 AM 19.6 °F 10.6 °F 10.9 °F 69% 30.30 in 10.0 mi WNW 6.9 mph - N/A   Overcast
3:35 AM 19.4 °F 9.5 °F 10.9 °F 70% 30.29 in 10.0 mi NW 8.1 mph - N/A   Overcast
3:55 AM 19.2 °F 12.5 °F 10.4 °F 69% 30.30 in 10.0 mi NW 4.6 mph - N/A   Overcast
4:15 AM 19.2 °F 11.3 °F 10.6 °F 69% 30.31 in 10.0 mi NW 5.8 mph - N/A   Overcast
4:35 AM 18.9 °F 9.8 °F 10.8 °F 71% 30.31 in 10.0 mi NW 6.9 mph - N/A   Overcast
4:55 AM 18.5 °F 8.4 °F 9.7 °F 68% 30.31 in 10.0 mi NW 8.1 mph - N/A   Overcast
5:15 AM 18.5 °F 9.3 °F 10.2 °F 70% 30.31 in 10.0 mi NW 6.9 mph - N/A   Overcast
5:35 AM 18.5 °F 10.4 °F 10.4 °F 71% 30.31 in 10.0 mi NW 5.8 mph - N/A   Overcast
5:55 AM 18.1 °F 10.0 °F 10.4 °F 72% 30.32 in 10.0 mi NW 5.8 mph - N/A   Overcast
6:15 AM 17.6 °F 9.3 °F 10.4 °F 73% 30.33 in 10.0 mi WNW 5.8 mph - N/A   Overcast
6:35 AM 17.6 °F 9.3 °F 10.4 °F 73% 30.33 in 10.0 mi WNW 5.8 mph - N/A   Overcast
6:55 AM 17.6 °F 8.2 °F 10.4 °F 73% 30.34 in 10.0 mi WNW 6.9 mph - N/A   Overcast
7:15 AM 17.6 °F 9.3 °F 10.2 °F 73% 30.35 in 10.0 mi NW 5.8 mph - N/A   Overcast
7:35 AM 17.4 °F 12.1 °F 10.0 °F 73% 30.34 in 10.0 mi WNW 3.5 mph - N/A   Overcast
7:55 AM 17.6 °F 10.7 °F 9.7 °F 71% 30.34 in 10.0 mi NNW 4.6 mph - N/A   Mostly Cloudy
8:15 AM 17.6 °F 9.3 °F 9.5 °F 71% 30.36 in 10.0 mi NW 5.8 mph - N/A   Scattered Clouds
8:35 AM 18.0 °F 9.8 °F 9.7 °F 70% 30.36 in 10.0 mi NW 5.8 mph - N/A   Scattered Clouds
8:55 AM 17.8 °F 10.9 °F 9.3 °F 69% 30.39 in 10.0 mi NW 4.6 mph - N/A   Scattered Clouds
9:15 AM 17.8 °F 9.6 °F 9.3 °F 69% 30.39 in 10.0 mi NW 5.8 mph - N/A   Scattered Clouds
9:35 AM 17.8 °F 9.6 °F 9.3 °F 69% 30.40 in 10.0 mi NW 5.8 mph - N/A   Scattered Clouds
9:55 AM 17.8 °F 10.9 °F 9.1 °F 69% 30.39 in 10.0 mi NNW 4.6 mph - N/A   Scattered Clouds
10:15 AM 18.1 °F 7.9 °F 8.2 °F 65% 30.39 in 10.0 mi NW 8.1 mph - N/A   Mostly Cloudy
10:35 AM 18.3 °F 10.2 °F 7.9 °F 64% 30.41 in 10.0 mi NW 5.8 mph - N/A   Mostly Cloudy
10:55 AM 18.5 °F 8.4 °F 7.9 °F 63% 30.39 in 10.0 mi NNW 8.1 mph - N/A   Mostly Cloudy
11:15 AM 18.3 °F 9.1 °F 7.7 °F 63% 30.38 in 10.0 mi NW 6.9 mph - N/A   Mostly Cloudy
11:35 AM 18.0 °F 7.7 °F 7.2 °F 63% 30.37 in 10.0 mi NNW 8.1 mph - N/A   Overcast
11:55 AM 18.1 °F 8.9 °F 7.2 °F 62% 30.37 in 10.0 mi NNW 6.9 mph - N/A   Overcast
12:15 PM 18.3 °F 9.1 °F 7.0 °F 61% 30.37 in 10.0 mi NW 6.9 mph - N/A   Overcast
12:35 PM 18.7 °F 11.9 °F 7.7 °F 62% 30.37 in 10.0 mi NW 4.6 mph - N/A   Overcast
12:55 PM 18.9 °F 10.8 °F 8.2 °F 63% 30.37 in 10.0 mi NNW 5.8 mph - N/A   Overcast
1:15 PM 18.5 °F 10.4 °F 7.5 °F 62% 30.37 in 10.0 mi NNW 5.8 mph - N/A   Overcast
1:35 PM 19.0 °F 11.1 °F 7.3 °F 60% 30.40 in 10.0 mi NW 5.8 mph - N/A   Overcast
1:55 PM 19.4 °F 9.5 °F 7.3 °F 60% 30.38 in 10.0 mi NNW 8.1 mph - N/A   Overcast
2:15 PM 19.0 °F 10.0 °F 7.0 °F 59% 30.36 in 10.0 mi NNW 6.9 mph - N/A   Overcast
2:35 PM 18.9 °F 9.8 °F 7.0 °F 60% 30.38 in 10.0 mi NW 6.9 mph - N/A   Mostly Cloudy
2:55 PM 18.9 °F 9.8 °F 6.8 °F 59% 30.37 in 10.0 mi NW 6.9 mph - N/A   Scattered Clouds
3:15 PM 19.2 °F 8.4 °F 7.2 °F 59% 30.37 in 10.0 mi NNW 9.2 mph - N/A   Scattered Clouds
3:35 PM 19.2 °F 14.1 °F 6.8 °F 59% 30.39 in 10.0 mi NNW 3.5 mph - N/A   Clear
3:55 PM 18.5 °F 10.4 °F 7.2 °F 61% 30.39 in 10.0 mi NW 5.8 mph - N/A   Clear
4:15 PM 18.1 °F 10.0 °F 7.2 °F 62% 30.40 in 10.0 mi NNW 5.8 mph - N/A   Clear
4:35 PM 17.6 °F 10.7 °F 6.8 °F 63% 30.41 in 10.0 mi NNW 4.6 mph - N/A   Clear
5:15 PM 16.7 °F 11.2 °F 7.2 °F 66% 30.42 in 10.0 mi NW 3.5 mph - N/A   Clear
5:55 PM 16.3 °F 9.2 °F 6.8 °F 66% 30.42 in 10.0 mi NNW 4.6 mph - N/A   Clear
6:15 PM 15.8 °F - 6.8 °F 68% 30.43 in 10.0 mi Calm Calm - N/A   Clear
6:35 PM 15.8 °F 8.6 °F 6.8 °F 68% 30.44 in 10.0 mi NW 4.6 mph - N/A   Clear
6:55 PM 15.4 °F - 6.8 °F 69% 30.45 in 10.0 mi Calm Calm - N/A   Clear
7:15 PM 15.1 °F - 6.8 °F 70% 30.46 in 10.0 mi Calm Calm - N/A   Clear
7:35 PM 14.9 °F 9.2 °F 6.8 °F 70% 30.46 in 10.0 mi NW 3.5 mph - N/A   Clear
7:55 PM 14.7 °F 9.0 °F 6.8 °F 71% 30.47 in 10.0 mi NW 3.5 mph - N/A   Clear
8:15 PM 14.2 °F 8.4 °F 7.2 °F 74% 30.47 in 10.0 mi WNW 3.5 mph - N/A   Clear
8:35 PM 14.0 °F 8.2 °F 6.8 °F 73% 30.49 in 10.0 mi WNW 3.5 mph - N/A   Clear
8:55 PM 13.6 °F 6.0 °F 6.8 °F 74% 30.49 in 10.0 mi WNW 4.6 mph - N/A   Clear
9:15 PM 13.6 °F 7.7 °F 6.8 °F 74% 30.49 in 10.0 mi NW 3.5 mph - N/A   Clear
9:35 PM 13.5 °F 7.5 °F 6.6 °F 74% 30.50 in 10.0 mi WNW 3.5 mph - N/A   Clear
9:55 PM 13.5 °F 7.5 °F 6.4 °F 74% 30.51 in 10.0 mi NW 3.5 mph - N/A   Clear
10:15 PM 13.1 °F 5.4 °F 6.3 °F 74% 30.52 in 10.0 mi NW 4.6 mph - N/A   Clear
10:35 PM 13.1 °F 5.4 °F 5.9 °F 73% 30.52 in 10.0 mi NW 4.6 mph - N/A   Clear
10:55 PM 13.1 °F 5.4 °F 5.5 °F 72% 30.53 in 10.0 mi NW 4.6 mph - N/A   Clear
11:15 PM 12.7 °F 6.7 °F 5.4 °F 72% 30.54 in 10.0 mi NW 3.5 mph - N/A   Clear
11:35 PM 12.6 °F 3.4 °F 4.8 °F 71% 30.55 in 10.0 mi NW 5.8 mph - N/A   Clear
11:55 PM 12.6 °F 6.5 °F 4.1 °F 69% 30.55 in 10.0 mi NNW 3.5 mph - N/A   Clear